Location: Unspecified
(0.0000°N, 0.0000°E)
Time: 17:29:45
(UTC+00:00)

STARLINK 1068 - Pass Details

Date: 15 January 2020
Orbit: 468 x 471 km, 53.0° (Epoch: 23 January)

Event Time Altitude Azimuth Distance (km) Brightness Sun altitude
Rises 05:14:22 0° 181° (S) 2,514 7.3 -12.8°
Reaches altitude 10° 05:17:43 10° 149° (SSE) 1,626 6.9 -12.0°
Maximum altitude 05:19:10 12° 125° (SE) 1,504 7.2 -11.6°
Drops below altitude 10° 05:20:37 10° 102° (ESE) 1,619 7.5 -11.3°
Sets 05:23:55 0° 69° (ENE) 2,489 7.8 -10.5°
